sat.trackr.live / text

‹ back to catalog

2025-313H

NORAD 67255 · 2025-313H

PAYLOAD ACTIVE UNKNOWN

§ Identity

Operator
Country
TBD
Launch date
2025-12-28
Launch site
VOSTO
Launch vehicle
Mass (kg)
RCS (m²)

External: N2YO · Heavens-Above · Gunter

§ Orbital elements

Epoch: 2026-09-20T07:26:12.872544Z

Period
95.52 min
Inclination
97.2766°
Eccentricity
0.0068269
Mean motion
15.07464683 rev/d
Perigee alt
496.7 km
Apogee alt
591.2 km
Semi-major
6,922.1 km
B*
9.5224e-5
RAAN
326.1675°
Arg perigee
8.6306°
Mean anomaly
351.6079°
Rev number
3,998

§ Raw data

2025-313H1 67255U 25313H   26263.30987121  .00001459  00000+0  95224-4 0  99932 67255  97.2766 326.1675 0068269   8.6306 351.6079 15.07464683 39982

JSON: /api/v1/satellites/67255 · /tle

For live sub-satellite position, see the globe view (requires WebGL).

§ Visibility from observer

Set your observer location to see the next 7 days of passes ≥ 10°. The values pass through the URL so the page stays shareable.

No JS? Fill the form by hand. The geolocation button needs JavaScript.

§ Radio — SatNOGS DB

ModeDescriptionDownlinkUplink
FM Telemetry 436.740 MHz

1 transmitter · refreshed weekly from db.satnogs.org